[[{"header":{"parameterUnit":"m.s-1","parameterCategory":1,"la1":30.2991,"la2":30.254,"lo1":-89.0895,"lo2":-89.0444,"dy":0.0017,"dx":0.0017,"nx":28,"ny":28,"refTime":"2025-01-06T03:00:00:Z","depth":0,"parameterNumber":2,"parameterNumberName":"U-component_of_WINDS"},"data":[0,0,0,0,0,0,0,0,0,0,0,0,0,0,0,0,0,0,0,0,0,0,0,0,0,0,0,0,0,0,0,0,0,0,0,0,0,0,0,0,0,0,0,0,0,0,0,0,0,0,0,0,0,0,0,0,0,0,1.7208,1.7206,0,1.7025,1.7022,1.702,1.6901,1.69,1.6899,1.6899,1.6713,1.6709,1.6705,0,0,0,0,0,0,0,0,0,0,0,0,0,1.7461,1.7457,1.7209,1.7206,1.7204,1.7025,1.7022,1.702,1.6901,1.69,1.6899,1.6898,1.6714,1.6709,1.6704,0,0,0,0,0,0,0,0,0,0,0,0,0,1.7322,1.7455,1.7209,1.7123,1.7113,1.7025,1.7022,1.7019,1.6901,1.69,1.6899,1.6898,1.6716,1.671,1.6704,1.6688,0,0,1.6684,1.6682,0,0,0,0,0,0,0,0,1.733,1.7312,1.7138,1.7129,1.7118,1.6984,1.7043,1.6908,1.6901,1.6982,1.6899,1.6897,1.6804,1.6791,1.6759,1.6679,1.6671,1.6684,1.668,1.6677,1.6675,0,0,0,0,0,0,0,1.7339,1.732,1.7136,1.7136,1.7123,1.7095,1.7074,1.7017,1.6902,1.6975,1.6966,1.6945,1.6799,1.6765,1.6754,1.6668,1.6684,1.6678,1.6674,1.6672,1.6567,1.6568,0,0,0,0,0,0,1.7362,1.7328,1.7142,1.713,1.7223,1.7091,1.7068,1.7028,1.6902,1.6882,1.6947,1.694,1.6777,1.6761,1.6747,1.672,1.6677,1.6671,1.6668,1.6566,1.6568,1.6569,0,0,0,0,0,0,1.7368,1.7347,1.7149,1.7227,1.7199,1.7088,1.7045,1.7025,1.6992,1.6881,1.686,1.6933,1.6775,1.6756,1.6703,1.6712,1.6668,1.6663,1.6565,1.6567,1.6568,1.6667,0,0,0,0,0,0,1.7376,1.7349,1.7341,1.7227,1.7196,1.7108,1.7045,1.7023,1.6981,1.6971,1.6863,1.6844,1.6773,1.6713,1.6697,1.6703,1.6658,1.6564,1.6566,1.6568,1.6663,1.6672,1.668,0,0,0,0,0,1.7385,1.7376,1.7341,1.7319,1.7183,1.7109,1.7091,1.7008,1.6982,1.6973,1.6902,1.6847,1.6714,1.6709,1.669,1.6693,1.6563,1.6565,1.6567,1.6659,1.667,1.668,0,0,0,0,0,0,1.7494,1.736,1.7319,1.7273,1.7203,1.7089,1.7075,1.7023,1.6959,1.6953,1.6854,1.6831,1.6789,1.6736,1.6733,1.6672,1.6632,1.6631,1.6708,1.6718,1.6726,1.674,1.6652,0,0,0,0,0,1.7513,1.7463,1.7349,1.7319,1.7286,1.7187,1.7152,1.7094,1.7018,1.6988,1.6913,1.6842,1.6784,1.6748,1.6688,1.6655,1.663,1.6648,1.6656,1.6664,1.6664,1.6643,1.665,1.6576,1.6576,1.6576,0,0,1.7551,1.7472,1.7446,1.7339,1.7278,1.723,1.7163,1.7114,1.7078,1.6981,1.6927,1.687,1.6784,1.6741,1.6719,1.6696,1.6679,1.6667,1.6674,1.6669,1.6647,1.6654,1.666,1.6578,1.6577,1.6577,0,0,1.7596,1.7531,1.7499,1.744,1.7348,1.7282,1.7276,1.7169,1.7127,1.7071,1.6998,1.6954,1.6856,1.6798,1.6756,1.6782,1.6729,1.6765,1.681,1.6791,1.6797,1.6802,1.6812,1.6816,1.6765,1.6766,1.6766,0,1.7656,1.7578,1.749,1.7446,1.7402,1.7312,1.7281,1.7227,1.7122,1.7094,1.707,1.6946,1.6882,1.6825,1.6831,1.68,1.679,1.6777,1.6803,1.6807,1.681,1.6819,1.6823,1.6771,1.677,1.677,1.6769,0,1.7656,1.7605,1.7591,1.749,1.7445,1.7407,1.7315,1.728,1.7227,1.7165,1.711,1.7031,1.6954,1.6936,1.6884,1.6873,1.6861,1.6822,1.6779,1.6824,1.683,1.6832,1.6778,1.6776,1.6775,1.6773,0,0,1.7764,1.7616,1.7613,1.7567,1.746,1.7418,1.7378,1.7303,1.7275,1.7206,1.717,1.709,1.7053,1.7006,1.6947,1.693,1.6957,1.6892,1.6889,1.6908,1.694,1.6971,1.6976,1.6922,1.6922,1.6922,1.6948,0,1.7793,1.7714,1.7635,1.7585,1.7536,1.7451,1.7416,1.7348,1.7289,1.7241,1.7176,1.7121,1.7076,1.7047,1.7027,1.6958,1.6962,1.6955,1.6888,1.6887,1.6913,1.6979,1.7011,1.7039,1.6949,1.695,1.695,0,1.7816,1.775,1.7696,1.7595,1.7571,1.7541,1.7467,1.7421,1.7343,1.7301,1.7249,1.7187,1.7142,1.7106,1.7043,1.704,1.7008,1.697,1.6969,1.696,1.6921,1.6972,1.7045,1.705,1.6953,1.6953,1.6952,0,1.79,1.7799,1.7753,1.7716,1.7597,1.7578,1.7528,1.7448,1.7409,1.7344,1.7318,1.7249,1.7212,1.7161,1.7082,1.7063,1.7028,1.6985,1.6993,1.6996,1.6989,1.6991,1.706,1.6969,1.6969,1.6969,1.6969,0,1.7941,1.7911,1.7789,1.7761,1.7726,1.7636,1.7604,1.7546,1.7477,1.7437,1.736,1.7325,1.7223,1.7176,1.7115,1.7073,1.7056,1.7023,1.7007,1.7029,1.7034,1.7007,1.7003,1.697,1.697,1.697,1.697,0,1.8029,1.7946,1.7891,1.7783,1.7756,1.7735,1.7643,1.7613,1.7551,1.7502,1.7486,1.7388,1.7329,1.7246,1.7161,1.712,1.7087,1.7061,1.7114,1.7104,1.7117,1.7117,1.7171,1.7174,1.7083,1.7084,1.7085,0,1.806,1.8035,1.7925,1.7893,1.7845,1.7794,1.7754,1.7665,1.7626,1.7536,1.7518,1.7453,1.7396,1.7306,1.7228,1.7164,1.7136,1.716,1.7126,1.715,1.7137,1.714,1.7137,1.7168,1.7169,1.717,1.7171,0,1.8125,1.8086,1.8029,1.796,1.7913,1.7854,1.7791,1.777,1.7668,1.7629,1.7567,1.7523,1.7438,1.7375,1.73,1.7249,1.7194,1.7183,1.7181,1.7204,1.7235,1.7219,1.7136,1.7182,1.7181,1.718,1.7179,1.7179,1.8185,1.816,1.8079,1.8019,1.7963,1.7907,1.7874,1.7808,1.7755,1.7678,1.7629,1.7571,1.7495,1.7389,1.7341,1.7295,1.7272,1.727,1.7269,1.727,1.7278,1.7243,1.7281,1.7281,1.728,1.728,1.728,0,1.8246,1.819,1.8137,1.8052,1.8006,1.7957,1.7886,1.7851,1.78,1.7734,1.768,1.761,1.7549,1.7467,1.7401,1.738,1.7353,1.7365,1.7366,1.7355,1.7302,1.731,1.7388,1.7388,1.7388,1.7388,1.7388,1.7388,1.8272,1.8227,1.8179,1.8105,1.805,1.7991,1.7955,1.7903,1.785,1.7776,1.7724,1.7671,1.7599,1.7527,1.7469,1.7447,1.7426,1.7447,1.7417,1.7369,1.7359,1.7349,1.7356,1.7443,1.7443,1.7473,1.7474,1.7474]},{"header":{"parameterUnit":"m.s-1","parameterCategory":1,"la1":30.2991,"la2":30.254,"lo1":-89.0895,"lo2":-89.0444,"dy":0.0017,"dx":0.0017,"nx":28,"ny":28,"refTime":"2025-01-06T03:00:00:Z","depth":0,"parameterNumber":3,"parameterNumberName":"V-component_of_WINDS"},"data":[0,0,0,0,0,0,0,0,0,0,0,0,0,0,0,0,0,0,0,0,0,0,0,0,0,0,0,0,0,0,0,0,0,0,0,0,0,0,0,0,0,0,0,0,0,0,0,0,0,0,0,0,0,0,0,0,0,0,8.9887,8.989,0,9.0132,9.0134,9.0137,9.0119,9.0115,9.0111,9.0108,9.0353,9.0363,9.0372,0,0,0,0,0,0,0,0,0,0,0,0,0,8.9397,8.9406,8.9887,8.989,8.9893,9.0131,9.0134,9.0138,9.0119,9.0115,9.011,9.0106,9.035,9.0361,9.0373,0,0,0,0,0,0,0,0,0,0,0,0,0,8.9622,8.9409,8.9886,8.9913,8.9917,9.013,9.0135,9.0139,9.012,9.0115,9.0109,9.0104,9.0346,9.036,9.0375,9.0576,0,0,9.042,9.0427,0,0,0,0,0,0,0,0,8.9609,8.964,8.9906,8.9911,8.9917,9.0089,9.0051,9.0285,9.0122,9.0043,9.0108,9.0102,9.0269,9.029,9.0348,9.0587,9.0598,9.0422,9.0431,9.0437,9.0441,0,0,0,0,0,0,0,8.9594,8.9629,8.9983,8.991,8.9917,8.991,8.9936,9.0096,9.0184,9.005,9.0049,9.0078,9.0271,9.0333,9.0353,9.0601,9.0421,9.0434,9.0444,9.0449,9.1016,9.1022,0,0,0,0,0,0,8.9573,8.9616,8.9976,8.9991,8.9747,8.9923,8.9952,9.0039,9.0182,9.0198,9.0083,9.0077,9.0311,9.0336,9.0362,9.0606,9.0437,9.0451,9.0459,9.101,9.1017,9.1024,0,0,0,0,0,0,8.9563,8.9605,8.9966,8.9804,8.9849,8.9937,9.0035,9.0047,9.0109,9.0207,9.0222,9.0131,9.0307,9.0341,9.0523,9.0615,9.0458,9.0471,9.1003,9.1012,9.1021,9.1097,0,0,0,0,0,0,8.9549,8.9602,8.9681,8.9806,8.9858,9.0125,9.0041,9.0056,9.0136,9.013,9.0256,9.0272,9.0306,9.0501,9.0538,9.0632,9.0483,9.0995,9.1007,9.1018,9.1087,9.1108,9.1126,0,0,0,0,0,8.9531,8.9692,8.9685,8.9729,8.9959,9.0131,9.016,9.0198,9.0143,9.0223,9.0285,9.0268,9.0598,9.0519,9.0561,9.0661,9.0989,9.1003,9.1017,9.1078,9.1104,9.1125,0,0,0,0,0,0,8.9574,8.9709,8.9703,8.9909,9.0009,9.0127,9.0229,9.0224,9.034,9.033,9.0369,9.0398,9.0581,9.0638,9.0549,9.0862,9.0786,9.0809,9.0818,9.0844,9.0863,9.0846,9.0495,0,0,0,0,0,8.9608,8.9739,8.9848,9.0019,9.0069,9.0141,9.0217,9.0237,9.0341,9.0382,9.0458,9.0558,9.0684,9.0766,9.0888,9.1094,9.112,9.1183,9.1202,9.1218,9.1238,9.135,9.1379,9.1069,9.1069,9.1069,0,0,8.9679,8.9768,8.9848,9.003,9.011,9.0242,9.0176,9.0319,9.0416,9.0403,9.0581,9.0639,9.0753,9.0948,9.1037,9.1001,9.1328,9.1235,9.1247,9.1259,9.1367,9.1396,9.1422,9.1079,9.1077,9.1075,0,0,8.9876,8.9957,9.0109,9.019,9.0311,9.0357,9.0393,9.0512,9.0551,9.073,9.0722,9.0837,9.1054,9.1135,9.1205,9.1429,9.1418,9.1467,9.157,9.1679,9.1703,9.1725,9.1805,9.1834,9.1486,9.1486,9.1486,0,8.9949,9.015,9.0186,9.0331,9.041,9.0405,9.0557,9.0633,9.0787,9.0841,9.0799,9.1071,9.1147,9.136,9.1415,9.1471,9.1512,9.1455,9.1697,9.1719,9.174,9.1817,9.1847,9.1492,9.1491,9.149,9.149,0,9.0232,9.0371,9.0478,9.063,9.072,9.0868,9.0925,9.1012,9.1023,9.1072,9.1252,9.1343,9.1482,9.1534,9.1545,9.1748,9.1723,9.1688,9.1613,9.1774,9.1847,9.1877,9.1499,9.1497,9.1496,9.1494,0,0,9.0467,9.0635,9.0674,9.0742,9.0874,9.0981,9.1126,9.1264,9.1338,9.1443,9.1565,9.1748,9.1716,9.1795,9.1815,9.1911,9.2082,9.1864,9.1868,9.1903,9.2311,9.2338,9.2371,9.2074,9.208,9.2084,9.2302,0,9.0678,9.094,9.0975,9.1205,9.1333,9.1328,9.1455,9.1548,9.1597,9.171,9.1763,9.1892,9.1841,9.1888,9.1982,9.2042,9.2165,9.2026,9.2188,9.2193,9.2162,9.241,9.2439,9.264,9.2331,9.2335,9.2339,0,9.0961,9.1076,9.1319,9.1432,9.1487,9.1601,9.1729,9.1838,9.1942,9.1971,9.2058,9.2066,9.2214,9.213,9.2334,9.2239,9.2306,9.2345,9.2353,9.2372,9.2278,9.2436,9.2705,9.2736,9.2384,9.2381,9.2377,0,9.1108,9.1323,9.1496,9.1554,9.1691,9.1771,9.1831,9.193,9.201,9.212,9.2172,9.2298,9.2367,9.2463,9.2504,9.2439,9.2705,9.2625,9.2732,9.2731,9.2791,9.2787,9.3076,9.2831,9.283,9.283,9.2829,0,9.1342,9.1491,9.1565,9.1672,9.1837,9.1875,9.2038,9.2094,9.2182,9.2298,9.2299,9.2407,9.2453,9.2568,9.26,9.2764,9.2794,9.2821,9.2828,9.2822,9.2819,9.2869,9.2856,9.2838,9.2836,9.2834,9.2833,0,9.1536,9.1592,9.178,9.1894,9.1926,9.2043,9.2139,9.2241,9.2287,9.2434,9.247,9.2542,9.2677,9.2727,9.289,9.2911,9.3101,9.3096,9.3067,9.3069,9.3175,9.3165,9.3508,9.3555,9.3276,9.3279,9.3281,0,9.1683,9.1798,9.1924,9.2002,9.2066,9.2192,9.2274,9.2314,9.2398,9.2525,9.2611,9.2745,9.2856,9.3071,9.3137,9.3261,9.326,9.3371,9.3279,9.3269,9.3263,9.3257,9.3268,9.3389,9.3392,9.3394,9.3396,0,9.1938,9.1959,9.2078,9.2206,9.2304,9.2407,9.2506,9.2569,9.2623,9.2718,9.2857,9.2942,9.3109,9.3242,9.3369,9.3428,9.3422,9.3424,9.3456,9.3453,9.3432,9.3446,9.3116,9.3417,9.3415,9.3413,9.3412,9.3411,9.2114,9.2215,9.232,9.2452,9.253,9.2623,9.2724,9.2783,9.29,9.3041,9.3056,9.3205,9.3304,9.3474,9.3539,9.3655,9.3624,9.367,9.3682,9.3693,9.3702,9.3411,9.3677,9.3677,9.3676,9.3676,9.3676,0,9.2369,9.2436,9.2557,9.2696,9.2799,9.2784,9.2892,9.2979,9.3111,9.3204,9.3312,9.3471,9.3599,9.3674,9.3803,9.3881,9.3881,9.3913,9.3909,9.3923,9.3721,9.3681,9.3911,9.3911,9.3911,9.3911,9.3911,9.3911,9.2515,9.2686,9.2719,9.2928,9.2993,9.3141,9.3204,9.3288,9.3363,9.3541,9.3648,9.3696,9.3782,9.3916,9.4032,9.4051,9.4099,9.4135,9.415,9.3961,9.3937,9.3914,9.3877,9.4144,9.4144,9.4343,9.4345,9.4346]}]]